User: anonymous   Login
Location: Unspecified
(0.0000°N, 0.0000°E)
Time: 03:30:54
(UTC+00:00)
Language:

OBJECT BV - Orbit

View from above orbital plane
View from above orbital plane
View from above satellite
View from above satellite

Ground track
Ground track

The orbit data is extracted from the following two-line orbital elements,

1 42015U 17008BV  17173.89554903 +.00001269 +00000-0 +57266-4 0  9998
2 42015 097.4947 235.3202 0006418 186.0431 174.0729 15.22839785019216
Epoch (UTC): 22 June 2017 21:29:35
Eccentricity: 0.0006418
inclination: 97.4947°
perigee height: 493 km
apogee height: 501 km
right ascension of ascending node: 235.3202°
argument of perigee: 186.0431°
revolutions per day: 15.22839785
mean anomaly at epoch: 174.0729°
orbit number at epoch: 1921

The dashed part of the orbit path shows where the satellite is in the earth's shadow,  

DLR